KB8DLR Weather Reports


time (UTC)temp
C
wind
direction
speed
KPH
gust
KPH
rain 1hr
cm
rain 24hr
cm
rain mn
cm
humidity
%
barometer
mb
20260506235039 13 293 0.0 1.6 0.00 1.35 0.79 63 1013.3
20260506234017 13 338 0.0 1.6 0.00 1.35 0.79 63 1013.4
20260506233015 14 0.0 0.0 0.00 1.35 0.79 63 1013.4
20260506232031 14 350 0.0 3.2 0.00 1.35 0.79 62 1013.4
20260506231018 14 0.0 3.2 0.00 1.35 0.79 62 1013.8
20260506230022 14 0.0 0.0 0.00 1.37 0.79 63 1013.8
20260506225026 14 24 1.6 3.2 0.00 1.42 0.79 62 1014.0
20260506224030 15 4 1.6 3.2 0.00 1.78 0.79 62 1014.0
20260506223017 15 341 0.0 3.2 0.00 1.78 0.79 62 1013.9
20260506222020 15 40 1.6 3.2 0.00 1.78 0.79 60 1013.4
20260506221025 15 68 0.0 3.2 0.00 1.78 0.79 59 1013.0
20260506220029 16 13 1.6 3.2 0.00 1.78 0.79 59 1013.0
20260506215015 16 355 1.6 3.2 0.00 1.78 0.79 59 1012.9
20260506214019 16 5 1.6 3.2 0.00 1.78 0.79 58 1012.8
20260506213023 17 3 1.6 3.2 0.00 1.78 0.79 58 1012.7
20260506212029 16 354 1.6 3.2 0.00 1.78 0.79 59 1012.6
20260506211032 16 4 1.6 3.2 0.00 1.78 0.79 60 1012.5
20260506210018 17 325 1.6 3.2 0.00 1.78 0.79 58 1012.3
20260506205024 18 352 1.6 3.2 0.00 1.78 0.79 57 1012.3
20260506204026 18 356 1.6 4.8 0.00 1.78 0.79 56 1012.3
20260506203030 19 17 1.6 3.2 0.00 1.78 0.79 54 1012.3
20260506202017 19 329 1.6 3.2 0.00 1.78 0.79 55 1012.2
20260506201042 20 61 1.6 3.2 0.00 1.78 0.79 52 1012.3
20260506200025 22 13 1.6 3.2 0.00 1.78 0.79 49 1012.3
20260506195029 23 325 3.2 3.2 0.00 1.78 0.79 46 1012.3
20260506194036 22 347 1.6 6.4 0.00 1.78 0.79 49 1012.1
20260506193019 21 357 1.6 4.8 0.00 1.78 0.79 51 1012.0
20260506192044 21 350 1.6 4.8 0.00 1.78 0.79 52 1012.3
20260506191109 20 308 1.6 3.2 0.00 1.78 0.79 54 1012.2
20260506190046 20 339 3.2 3.2 0.00 1.78 0.79 53 1012.3
20260506185039 20 5 1.6 4.8 0.00 1.78 0.79 54 1012.5
20260506184022 19 7 3.2 4.8 0.00 1.78 0.79 53 1012.6
20260506183020 20 5 1.6 3.2 0.00 1.78 0.79 52 1012.6
20260506182019 20 10 3.2 3.2 0.00 1.78 0.79 52 1012.5
20260506181017 19 17 3.2 4.8 0.00 1.78 0.79 54 1012.6
20260506180035 18 14 3.2 4.8 0.00 1.78 0.79 53 1012.5
20260506175025 19 2 3.2 4.8 0.00 1.78 0.79 51 1012.7
20260506174029 20 34 1.6 3.2 0.00 1.78 0.79 55 1012.7
20260506173015 20 353 1.6 4.8 0.00 1.78 0.79 54 1012.6
20260506172020 19 33 1.6 3.2 0.00 1.78 0.79 54 1012.4
20260506171024 20 29 3.2 4.8 0.00 1.78 0.79 54 1012.5
20260506170028 21 20 3.2 4.8 0.00 1.78 0.79 56 1012.7
20260506165032 20 337 1.6 3.2 0.00 1.78 0.79 59 1012.8
20260506164018 20 19 1.6 3.2 0.00 1.78 0.79 61 1012.8
20260506163104 19 1 1.6 3.2 0.00 1.78 0.79 61 1012.4
20260506162027 19 359 1.6 4.8 0.00 1.78 0.79 63 1012.3
20260506161031 18 4 1.6 3.2 0.00 1.78 0.79 67 1012.5
20260506160017 19 348 1.6 3.2 0.00 1.78 0.79 67 1012.3
20260506155023 17 16 1.6 3.2 0.00 1.78 0.79 73 1012.3
20260506154026 16 358 1.6 3.2 0.00 1.78 0.79 77 1012.1
20260506153030 16 5 3.2 3.2 0.00 1.78 0.79 78 1011.8
20260506152016 15 266 1.6 3.2 0.00 1.78 0.79 82 1012.1
20260506151020 14 270 0.0 3.2 0.00 1.78 0.79 83 1012.0
20260506150024 13 14 1.6 3.2 0.00 1.78 0.79 85 1011.8
20260506145029 13 347 1.6 3.2 0.00 1.78 0.79 86 1011.8
20260506144015 13 315 1.6 3.2 0.00 1.78 0.79 88 1011.7
20260506143020 13 344 1.6 3.2 0.00 1.78 0.79 92 1011.5
20260506142023 12 358 1.6 3.2 0.00 1.78 0.79 91 1011.3
20260506141027 12 288 1.6 3.2 0.00 1.78 0.79 94 1011.2
20260506140032 12 348 1.6 3.2 0.00 1.78 0.79 96 1010.9
20260506135018 11 346 1.6 3.2 0.00 1.78 0.79 98 1010.8
20260506134022 11 322 1.6 3.2 0.00 1.78 0.79 99 1010.8
20260506133026 10 23 0.0 3.2 0.00 1.78 0.79 99 1010.8
20260506132025 10 20 1.6 3.2 0.00 1.78 0.79 99 1010.7
20260506131018 10 325 1.6 3.2 0.00 1.78 0.79 99 1010.7
20260506130021 10 0.0 0.0 0.00 1.78 0.79 99 1010.5
20260506125019 10 20 1.6 3.2 0.00 1.78 0.79 99 1010.3
20260506124018 9 15 1.6 3.2 0.00 1.78 0.79 99 1010.1
20260506123016 8 338 0.0 3.2 0.00 1.78 0.79 99 1009.8
20260506122021 8 0.0 1.6 0.00 1.78 0.79 99 1010.3
20260506121024 8 0 0.0 1.6 0.00 1.78 0.79 99 1009.8
20260506120027 8 9 0.0 3.2 0.00 1.78 0.79 99 1009.8
20260506115031 8 1 1.6 3.2 0.00 1.78 0.79 99 1009.7
20260506114039 8 18 1.6 3.2 0.00 1.78 0.79 99 1009.4
20260506113102 8 357 1.6 3.2 0.00 1.78 0.79 99 1009.1
20260506112026 8 11 1.6 3.2 0.00 1.78 0.79 99 1008.5
20260506111030 8 24 1.6 3.2 0.03 1.78 0.79 99 1008.7
20260506110017 8 27 1.6 3.2 0.03 1.78 0.79 99 1008.8
20260506105021 8 4 1.6 3.2 0.03 1.78 0.79 99 1008.7
20260506104025 8 0.0 0.0 0.03 1.78 0.79 99 1008.5
20260506103029 8 0.0 0.0 0.03 1.78 0.79 99 1008.2
20260506102035 8 0 0.0 1.6 0.03 1.78 0.79 99 1007.5
20260506101039 -17 0.0 0.0 0.00 1.75 0.76 1007.6
20260506100023 -17 0.0 0.0 0.03 1.75 0.76 1007.8
20260506095029 -17 0.0 0.0 0.08 1.75 0.76 1007.7
20260506094032 -17 0.0 0.0 0.10 1.75 0.76 1007.6
20260506093038 -17 0.0 0.0 0.15 1.75 0.76 1007.6
20260506092205 -17 0.0 0.0 0.20 1.75 0.76 1007.2
20260506091046 10 16 1.6 3.2 0.23 1.75 0.76 99 1007.4
20260506090030 10 0 0.0 3.2 0.20 1.73 0.74 99 1007.5
20260506085016 10 5 1.6 3.2 0.18 1.68 0.69 99 1007.4
20260506084021 10 4 1.6 3.2 0.15 1.65 0.66 99 1007.3
20260506083105 10 29 3.2 3.2 0.13 1.60 0.61 99 1007.2
20260506082029 10 351 3.2 3.2 0.10 1.55 0.56 99 1007.2
20260506081017 11 23 0.0 3.2 0.13 1.52 0.53 99 1006.8
20260506073020 11 356 0.0 3.2 0.28 1.47 0.48 99 1006.4
20260506072019 12 345 1.6 3.2 0.28 1.45 0.46 99 1006.4
20260506071038 13 21 1.6 3.2 0.25 1.40 0.41 99 1006.4
20260506062026 14 203 0.0 1.6 0.15 1.17 0.18 99 1006.4
20260506061031 14 0.0 0.0 0.13 1.14 0.15 99 1006.6
20260506051040 15 0.0 0.0 0.00 1.02 0.03 99 1007.3
20260506045028 15 0.0 0.0 0.03 1.02 0.03 99 1007.5
20260506044033 15 0.0 0.0 0.08 1.02 0.03 99 1007.6
20260506043019 15 0.0 0.0 0.15 1.02 0.03 99 1007.6
20260506042023 15 0.0 0.0 0.20 1.02 0.03 99 1007.5
20260506041027 15 0.0 0.0 0.25 1.02 0.03 99 1007.9
20260506040032 15 0.0 0.0 0.23 0.99 0.00 99 1008.1
20260506035017 15 158 0.0 3.2 0.28 0.99 0.99 99 1008.3
20260506034022 15 0.0 0.0 0.25 0.94 0.94 99 1008.5
20260506033026 15 0.0 0.0 0.23 0.86 0.86 99 1008.5
20260506032111 15 0.0 0.0 0.23 0.81 0.81 99 1008.4
20260506031017 15 0.0 0.0 0.20 0.76 0.76 99 1008.5
20260506030022 15 0.0 0.0 0.23 0.76 0.76 99 1008.4
20260506025105 15 0.0 0.0 0.20 0.71 0.71 99 1008.5
20260506024050 15 0.0 0.0 0.20 0.69 0.69 99 1008.5
20260506023017 15 0.0 0.0 0.15 0.64 0.64 99 1008.6
20260506022020 15 0.0 0.0 0.13 0.58 0.58 99 1008.4
20260506021024 15 0.0 0.0 0.10 0.56 0.56 99 1008.4
20260506020022 15 0.0 0.0 0.08 0.53 0.53 99 1008.4
20260506015020 15 0.0 0.0 0.05 0.51 0.51 99 1008.3
20260506014023 15 0.0 0.0 0.05 0.48 0.48 99 1008.2
20260506013037 15 0.0 0.0 0.05 0.48 0.48 99 1008.1
20260506012015 15 0.0 0.0 0.03 0.46 0.46 99 1008.1
20260506011031 15 0.0 0.0 0.03 0.46 0.46 99 1008.0
20260506010018 15 0.0 0.0 0.03 0.46 0.46 99 1008.2
20260506005022 15 0.0 0.0 0.03 0.46 0.46 99 1008.4
20260506004025 15 0.0 0.0 0.00 0.43 0.43 99 1008.4
20260506003030 15 0.0 0.0 0.00 0.43 0.43 99 1008.4
20260506002017 15 0.0 3.2 0.00 0.43 0.43 99 1008.4
20260506001020 15 0.0 0.0 0.00 0.43 0.43 99 1008.3
20260506000045 15 0.0 0.0 0.03 0.43 0.43 99 1008.3